Voltar ao catálogo

STARLINK-37480

AtivoComunicaçõesVLEO
NORAD 100287·PAYLOAD·🇺🇸 United States

Lançado Aug 11, 2026 de Cape Canaveral Space Force Station

Loading…

Próximas Passagens (próximas 24 horas)

TLE

ObsoletoSource: Space-Track

Época: Sep 7, 2026, 17:23 UTC

1 A0287U 26183R   26250.72440252 -.01129862  00000-0 -76060-2 0  9990
2 A0287  53.1605 319.8769 0000907 157.2116 202.8945 15.77066661  4303

Acompanhe STARLINK-37480 em tempo real com AllMySat

Download on the App Store